Simultaneous Nadir Overpasses (SNOs) Predictions

Prediction of SNOs between LANDSAT-8 and METOP-A Satellite Orbit:

Table of predicted SNOs for the next 14.0 days since TLE Epoch: 1/16/2015
Index Date (LANDSAT-8) Time (LANDSAT-8) Lat,Lon (LANDSAT-8) SZA (LANDSAT-8 ) Date (METOP-A) Time (METOP-A) Lat,Lon (METOP-A) SZA (METOP-A ) Distance(km) Time Diff (sec)
1 01/16/2015 19:22:11 -81.11, 108.91 76.34 01/16/2015 19:20:59 -81.11, 108.94 76.37 0.69 72
2 01/16/2015 20:11:37 81.12, -83.36 103.67 01/16/2015 20:11:39 81.12, -83.35 103.67 0.46 2
3 01/16/2015 21:00:28 -81.73, 98.32 74.50 01/16/2015 21:01:42 -81.35, 98.61 74.68 43.04 74
4 01/19/2015 14:56:25 -81.10, 175.17 76.96 01/19/2015 14:55:25 -81.10, 175.18 76.97 0.35 60
5 01/19/2015 15:45:49 81.13, -16.76 103.10 01/19/2015 15:46:03 81.13, -16.74 103.11 0.33 14
6 01/22/2015 10:30:37 -81.10,-118.40 77.59 01/22/2015 10:29:49 -81.11,-118.24 77.59 2.89 48
7 01/22/2015 11:20:02 81.13, 49.66 102.46 01/22/2015 11:20:28 81.13, 49.83 102.50 3.08 26
8 01/25/2015 06:04:49 -81.11, -51.80 78.25 01/25/2015 06:04:14 -81.11, -51.71 78.25 1.51 35
9 01/25/2015 06:54:14 81.13, 116.24 101.80 01/25/2015 06:54:53 81.14, 116.35 101.83 1.82 39
10 01/28/2015 01:39:01 -81.11, 14.62 78.98 01/28/2015 01:38:39 -81.12, 14.78 78.96 2.94 22




NCC Satellite Simultaneous Nadir Overpasses (SNOs) Prediction Service
